Regional Weather Roundup
Issued by NWS

Home | Current Version | Previous Version | Graphics & Text | Print | Product List | Glossary On
Versions: 1 2 3 4 5 6 7 8 9 10 11 12 13 14 15 16 17 18 19 20 21 22 23 24 25 26 27 28 29 30 31 32 33 34 35 36 37 38 39 40 41 42 43 44 45 46 47 48 49 50
000
ASUS43 KLOT 290812
RWRIL

ILLINOIS REGIONAL WEATHER ROUNDUP
NATIONAL WEATHER SERVICE CHICAGO/ROMEOVILLE IL
300 AM CDT THU SEP 29 2016

NOTE: "FAIR" INDICATES FEW OR NO CLOUDS BELOW 12,000 FEET WITH NO
SIGNIFICANT WEATHER AND/OR OBSTRUCTIONS TO VISIBILITY.

* THESE STATIONS ARE NOT UNDER NWS QUALITY CONTROL. THEY ALSO MAY NOT
  REPORT WEATHER SUCH AS PRECIPITATION OR FOG.

ILZ001-002-007-009-015-016-024-290900-
NORTHWEST ILLINOIS

CITY           SKY/WX    TMP DP  RH WIND       PRES   REMARKS
MOLINE         CLEAR     54  48  80 N8        30.19S
STERLING*      PTCLDY    55  51  86 N9G20     30.17S
SAVANNA*       CLEAR     53  50  90 N8        30.20S
$$

ILZ003-004-008-010-011-017-018-290900-
NORTH CENTRAL ILLINOIS

CITY           SKY/WX    TMP DP  RH WIND       PRES   REMARKS
ROCKFORD       MOCLDY    56  52  86 N16G28    30.18S
FREEPORT*      CLEAR     52  50  92 N7        30.21R
ROCHELLE*      PTCLDY    55  52  88 N12G20    30.14F
DE KALB*       MOCLDY    55  53  91 N16G22    30.12F
$$

ILZ005-006-012>014-019>023-290900-
NORTHEAST ILLINOIS

CITY           SKY/WX    TMP DP  RH WIND       PRES   REMARKS
CHICAGO-OHARE  CLOUDY    60  55  83 N18G31    30.07S
CHICAGO-MIDWAY CLOUDY    61  56  83 N15       30.05S
AURORA         CLEAR     58  53  84 N14       30.10R
LANSING*       LGT RAIN  60  58  93 NE10G17   30.04R
JOLIET*        MOCLDY    60  57  89 N9G16     30.06S
WAUKEGAN       PTCLDY    60  56  86 N13G22    30.10S
DUPAGE AIRPORT PTCLDY    58  53  84 N17G24    30.09R
KANKAKEE*      LGT RAIN  57  56  94 N9        30.03S
WHEELING       CLOUDY    60  55  83 N14       30.09F
MORRIS*        PTCLDY    56  54  91 CALM      30.06S
ROMEOVILLE*    LGT RAIN  58  58  98 N12G17    30.07R
NORTHERLY ISL    N/A     62  55  77 NE16        N/A
$$

LMZ740>746-290900-
SOUTHERN LAKE MICHIGAN

STATION/POSITION SKY/WX   TEMP    WIND        PRES    VSBY  WAVE
                          AIR SEA DIR/SP/G                  HT/PER
                          (F)     (DEG/KT/KT) (MB)    (MI)  (FT/S)
SOUTHERN BUOY              65 69   50/ 23/ 27 1017.9R         7/ 7
WILMETTE HARBOR            63 57   60/ 17/ 23   N/A           8/ 7
HARRISON CRIB              65      40/ 22/ 24   N/A
BURNHAM HARBOR             63      40/ 19/ 22   N/A
CALUMET HARBOR             63      20/ 16/ 23 1016.9R
BURNS HARBOR               62      50/ 21/ 27 1016.9R
MICHIGAN CITY              60      20/ 24/ 27   N/A
MICHIGAN CITY 6N           62 66   50/ 19/ 25   N/A           7/ 6
ST. JOSEPH                 61 64   40/ 19/ 25 1016.8          6/ 6
$$

ILZ025>027-034>036-040-047-049-050-058-095>099-290900-
WEST-CENTRAL ILLINOIS

CITY           SKY/WX    TMP DP  RH WIND       PRES   REMARKS
QUINCY         CLEAR     52  49  89 NW12      30.18F
GALESBURG*     CLEAR     51  48  89 NW8       30.17S
MACOMB*        CLEAR     51  49  92 N10       30.19S
JACKSONVILLE*  CLEAR     52  49  87 NW6       30.13S
PITTSFIELD*    PTCLDY    54  49  86 NW7       30.17S
$$

ILZ028>032-037-038-041>044-048-051>054-059>061-290900-
CENTRAL ILLINOIS

CITY           SKY/WX    TMP DP  RH WIND       PRES   REMARKS
PONTIAC        CLOUDY    57  55  95 N10       30.07F
BLOOMINGTON    MOCLDY    56  51  84 N15       30.07R
DECATUR        CLOUDY    57  50  77 NW15      30.06R
PEORIA         CLEAR     54  50  86 N9        30.12R
LACON*         PTCLDY    55  49  82 N7        30.11S
LINCOLN*       PTCLDY    55  51  87 N8        30.09R
SPRINGFIELD    PTCLDY    55  50  83 N10       30.11R
TAYLORVILLE    CLEAR     53  49  86 NW12G17   30.07S
$$

ILZ033-039-045-046-055>057-062-063-290900-
EAST-CENTRAL ILLINOIS

CITY           SKY/WX    TMP DP  RH WIND       PRES   REMARKS
CHAMPAIGN      LGT RAIN  56  53  90 N12G20    30.03S
RANTOUL*       RAIN      58  56  93 N13G21    30.02S
MATTOON        CLOUDY    56  50  80 N14       30.02S
PARIS*         CLOUDY    55  53  92 NW3       30.01S
$$

ILZ079-100>102-290900-
SOUTHWEST ILLINOIS

CITY           SKY/WX    TMP DP  RH WIND       PRES   REMARKS
CAHOKIA*       CLEAR     56  48  74 NW9       30.12S
SPARTA*        PTCLDY    52  49  91 NW6       30.11S
$$

ILZ064>066-069>071-074>076-080>082-084>086-088>090-092>094-290900-
SOUTH-CENTRAL ILLINOIS

CITY           SKY/WX    TMP DP  RH WIND       PRES   REMARKS
CARBONDALE     CLEAR     51  49  92 NW6       30.08F
CAIRO*         PTCLDY    52  48  86 NW9       30.09R
EFFINGHAM*     CLOUDY    55  52  90 W6        30.05S
MARION         CLEAR     54  50  87 NW3       30.08S
MT. VERNON     PTCLDY    52  45  76 CALM      30.07S
CENTRALIA*     CLEAR     54  51  90 NW8       30.06S
SALEM*         CLEAR     53  49  88 NW5       30.06S
METROPOLIS*    PTCLDY    52  48  88 CALM      30.07F
$$

ILZ067-068-072-073-078-083-087-091-290900-
SOUTHEAST ILLINOIS

CITY           SKY/WX    TMP DP  RH WIND       PRES   REMARKS
LAWRENCEVILLE  CLOUDY    54  50  86 W5        30.02S
FLORA*         MOCLDY    54  51  87 NW9       30.04S
FAIRFIELD*       N/A     52  49  92 CALM      30.04S
HARRISBURG*    CLEAR     53  50  91 NW7       30.06S
ROBINSON*      CLOUDY    54  51  90 CALM      30.02F
CARMI*         CLEAR     51  49  94 W8        30.03S
$$

ABBREVIATIONS USED IN REMARKS
   TC - TEMPERATURE IN CELSIUS
  WCI - WIND CHILL INDEX
   HX - HEAT INDEX
  VSB - VISIBILITY
$$




USA.gov is the U.S. government's official web portal to all federal, state and local government web resources and services.